Time,TemperatureF,DewpointF,PressureIn,WindDirection,WindDirectionDegrees,WindSpeedMPH,WindSpeedGustMPH,Humidity,HourlyPrecipIn,Conditions,Clouds,dailyrainin,SoftwareType,DateUTC
2013-01-06 00:00:00,17.3,14.6,30.19,North,360,0.0,1.0,89,0.00,,,0.01,WUHU216DAVISVP2,2013-01-06 05:00:00,
2013-01-06 00:01:00,17.3,14.6,30.19,North,360,0.0,1.0,89,0.00,,,0.01,WUHU216DAVISVP2,2013-01-06 05:01:00,
2013-01-06 00:02:00,17.3,14.6,30.19,North,360,0.0,1.0,89,0.00,,,0.00,WUHU216DAVISVP2,2013-01-06 05:02:00,
2013-01-06 00:06:00,17.3,14.6,30.19,North,360,0.0,1.0,89,0.00,,,0.00,WUHU216DAVISVP2,2013-01-06 05:06:00,
2013-01-06 00:11:00,17.3,14.6,30.19,North,360,0.0,1.0,89,0.00,,,0.00,WUHU216DAVISVP2,2013-01-06 05:11:00,
2013-01-06 00:16:00,17.3,14.3,30.18,NNE,17,0.0,1.0,88,0.00,,,0.00,WUHU216DAVISVP2,2013-01-06 05:16:00,
2013-01-06 00:21:00,17.1,14.1,30.17,North,360,0.0,0.0,88,0.00,,,0.00,WUHU216DAVISVP2,2013-01-06 05:21:00,
2013-01-06 00:26:00,16.9,13.9,30.17,NNE,17,0.0,0.0,88,0.00,,,0.00,WUHU216DAVISVP2,2013-01-06 05:26:00,
2013-01-06 00:31:00,16.8,14.1,30.17,North,360,0.0,0.0,89,0.00,,,0.00,WUHU216DAVISVP2,2013-01-06 05:31:00,
2013-01-06 00:36:00,16.7,14.0,30.17,NNE,15,0.0,0.0,89,0.00,,,0.00,WUHU216DAVISVP2,2013-01-06 05:36:00,
2013-01-06 00:41:00,16.7,14.0,30.17,NNE,17,0.0,0.0,89,0.00,,,0.00,WUHU216DAVISVP2,2013-01-06 05:41:00,
2013-01-06 00:46:00,16.6,13.9,30.18,North,360,0.0,0.0,89,0.00,,,0.00,WUHU216DAVISVP2,2013-01-06 05:46:00,
2013-01-06 00:51:00,16.6,13.9,30.17,North,360,0.0,0.0,89,0.00,,,0.00,WUHU216DAVISVP2,2013-01-06 05:51:00,
2013-01-06 00:56:00,16.7,14.2,30.17,North,360,0.0,0.0,90,0.00,,,0.00,WUHU216DAVISVP2,2013-01-06 05:56:00,
2013-01-06 01:01:00,16.6,13.9,30.17,North,360,0.0,0.0,89,0.00,,,0.00,WUHU216DAVISVP2,2013-01-06 06:01:00,
2013-01-06 01:06:00,16.7,14.2,30.17,North,360,0.0,0.0,90,0.00,,,0.00,WUHU216DAVISVP2,2013-01-06 06:06:00,
2013-01-06 01:11:00,16.7,14.2,30.17,North,360,0.0,0.0,90,0.00,,,0.00,WUHU216DAVISVP2,2013-01-06 06:11:00,
2013-01-06 01:16:00,16.9,14.4,30.17,NNW,327,1.1,2.0,90,0.00,,,0.00,WUHU216DAVISVP2,2013-01-06 06:16:00,
2013-01-06 01:21:00,17.1,14.4,30.19,NNW,327,0.0,2.0,89,0.00,,,0.00,WUHU216DAVISVP2,2013-01-06 06:21:00,
2013-01-06 01:26:00,17.1,14.4,30.19,NNW,327,1.0,2.0,89,0.00,,,0.00,WUHU216DAVISVP2,2013-01-06 06:26:00,
2013-01-06 01:31:00,17.2,14.5,30.19,NNW,327,0.0,2.0,89,0.00,,,0.00,WUHU216DAVISVP2,2013-01-06 06:31:00,
2013-01-06 01:36:00,17.2,14.5,30.19,NNW,327,0.0,2.0,89,0.00,,,0.00,WUHU216DAVISVP2,2013-01-06 06:36:00,
2013-01-06 01:41:00,17.3,14.6,30.19,NNW,327,0.0,2.0,89,0.00,,,0.00,WUHU216DAVISVP2,2013-01-06 06:41:00,
2013-01-06 01:46:00,17.5,15.0,30.19,NNW,327,0.0,1.0,90,0.00,,,0.00,WUHU216DAVISVP2,2013-01-06 06:46:00,
2013-01-06 01:51:00,17.6,14.9,30.19,NNW,327,1.0,1.0,89,0.00,,,0.00,WUHU216DAVISVP2,2013-01-06 06:51:00,
2013-01-06 01:56:00,17.7,15.0,30.19,NNW,327,0.0,1.0,89,0.00,,,0.00,WUHU216DAVISVP2,2013-01-06 06:56:00,
2013-01-06 02:01:00,17.9,15.2,30.19,NNW,327,0.0,1.0,89,0.00,,,0.00,WUHU216DAVISVP2,2013-01-06 07:01:00,
2013-01-06 02:06:00,18.0,15.3,30.20,NNW,327,0.0,1.0,89,0.00,,,0.00,WUHU216DAVISVP2,2013-01-06 07:06:00,
2013-01-06 02:11:00,18.0,15.0,30.19,NNW,327,0.0,1.0,88,0.00,,,0.00,WUHU216DAVISVP2,2013-01-06 07:11:00,
2013-01-06 02:16:00,18.1,15.1,30.18,NNW,327,0.0,1.0,88,0.00,,,0.00,WUHU216DAVISVP2,2013-01-06 07:16:00,
2013-01-06 02:21:00,18.1,15.1,30.17,NNW,327,0.0,0.0,88,0.00,,,0.00,WUHU216DAVISVP2,2013-01-06 07:21:00,
2013-01-06 02:26:00,18.1,15.1,30.17,NNW,327,0.0,0.0,88,0.00,,,0.00,WUHU216DAVISVP2,2013-01-06 07:26:00,
2013-01-06 02:31:00,18.2,15.2,30.18,NNW,327,0.0,0.0,88,0.00,,,0.00,WUHU216DAVISVP2,2013-01-06 07:31:00,
2013-01-06 02:36:00,18.5,15.8,30.17,NNW,327,0.0,1.0,89,0.00,,,0.00,WUHU216DAVISVP2,2013-01-06 07:36:00,
2013-01-06 02:41:00,18.5,15.8,30.17,NNW,327,0.0,1.0,89,0.00,,,0.00,WUHU216DAVISVP2,2013-01-06 07:41:00,
2013-01-06 02:46:00,18.5,15.5,30.17,NNW,327,0.0,1.0,88,0.00,,,0.00,WUHU216DAVISVP2,2013-01-06 07:46:00,
2013-01-06 02:51:00,18.5,15.5,30.17,NNW,327,0.0,1.0,88,0.00,,,0.00,WUHU216DAVISVP2,2013-01-06 07:51:00,
2013-01-06 02:56:00,18.6,15.6,30.16,NNW,327,0.0,0.0,88,0.00,,,0.00,WUHU216DAVISVP2,2013-01-06 07:56:00,
2013-01-06 03:01:00,18.6,15.6,30.16,NNW,327,0.0,0.0,88,0.00,,,0.00,WUHU216DAVISVP2,2013-01-06 08:01:00,
2013-01-06 03:06:00,18.7,15.7,30.16,NNW,327,0.0,0.0,88,0.00,,,0.00,WUHU216DAVISVP2,2013-01-06 08:06:00,
2013-01-06 03:11:00,18.8,15.8,30.15,NNW,327,0.0,0.0,88,0.00,,,0.00,WUHU216DAVISVP2,2013-01-06 08:11:00,
2013-01-06 03:16:00,18.8,15.8,30.15,NNW,327,0.0,0.0,88,0.00,,,0.00,WUHU216DAVISVP2,2013-01-06 08:16:00,
2013-01-06 03:21:00,18.9,15.9,30.14,NNW,327,0.0,0.0,88,0.00,,,0.00,WUHU216DAVISVP2,2013-01-06 08:21:00,
2013-01-06 03:26:00,19.0,16.0,30.13,NNW,327,0.0,0.0,88,0.00,,,0.00,WUHU216DAVISVP2,2013-01-06 08:26:00,
2013-01-06 03:31:00,19.1,15.9,30.12,NNW,327,0.0,0.0,87,0.00,,,0.00,WUHU216DAVISVP2,2013-01-06 08:31:00,
2013-01-06 03:36:00,19.1,16.1,30.13,NNW,327,0.0,0.0,88,0.00,,,0.00,WUHU216DAVISVP2,2013-01-06 08:36:00,
2013-01-06 03:41:00,19.2,16.2,30.13,NNW,327,0.0,0.0,88,0.00,,,0.00,WUHU216DAVISVP2,2013-01-06 08:41:00,
2013-01-06 03:46:00,19.3,16.1,30.12,NNW,327,1.0,1.0,87,0.00,,,0.00,WUHU216DAVISVP2,2013-01-06 08:46:00,
2013-01-06 03:51:00,19.3,16.1,30.12,NNW,327,0.0,1.0,87,0.00,,,0.00,WUHU216DAVISVP2,2013-01-06 08:51:00,
2013-01-06 03:56:00,19.4,16.4,30.12,NNW,327,0.0,1.0,88,0.00,,,0.00,WUHU216DAVISVP2,2013-01-06 08:56:00,
2013-01-06 04:01:00,19.5,16.5,30.12,NNW,327,0.0,1.0,88,0.00,,,0.00,WUHU216DAVISVP2,2013-01-06 09:01:00,
2013-01-06 04:06:00,19.5,16.5,30.12,NNW,327,0.0,0.0,88,0.00,,,0.00,WUHU216DAVISVP2,2013-01-06 09:06:00,
2013-01-06 04:11:00,19.6,16.3,30.11,NNW,327,0.0,0.0,87,0.00,,,0.00,WUHU216DAVISVP2,2013-01-06 09:11:00,
2013-01-06 04:16:00,19.6,16.3,30.11,NNW,327,0.0,0.0,87,0.00,,,0.00,WUHU216DAVISVP2,2013-01-06 09:16:00,
2013-01-06 04:21:00,19.7,16.7,30.11,NNW,327,0.0,1.0,88,0.00,,,0.00,WUHU216DAVISVP2,2013-01-06 09:21:00,
2013-01-06 04:26:00,19.8,16.5,30.10,NNW,327,0.0,1.0,87,0.00,,,0.00,WUHU216DAVISVP2,2013-01-06 09:26:00,
2013-01-06 04:31:00,19.9,16.6,30.10,NNW,327,0.0,1.0,87,0.00,,,0.00,WUHU216DAVISVP2,2013-01-06 09:31:00,
2013-01-06 04:36:00,19.9,16.6,30.09,NNW,327,0.0,1.0,87,0.00,,,0.00,WUHU216DAVISVP2,2013-01-06 09:36:00,
2013-01-06 04:41:00,20.0,17.0,30.09,NNW,327,0.0,0.0,88,0.00,,,0.00,WUHU216DAVISVP2,2013-01-06 09:41:00,
2013-01-06 04:46:00,20.0,16.7,30.08,NNW,327,0.0,0.0,87,0.00,,,0.00,WUHU216DAVISVP2,2013-01-06 09:46:00,
2013-01-06 04:51:00,20.1,16.8,30.08,NNW,327,0.0,0.0,87,0.00,,,0.00,WUHU216DAVISVP2,2013-01-06 09:51:00,
2013-01-06 04:56:00,20.2,16.9,30.09,NNW,327,0.0,0.0,87,0.00,,,0.00,WUHU216DAVISVP2,2013-01-06 09:56:00,
2013-01-06 05:01:00,20.2,16.9,30.09,NNW,327,0.0,0.0,87,0.00,,,0.00,WUHU216DAVISVP2,2013-01-06 10:01:00,
2013-01-06 05:06:00,20.2,16.9,30.08,NNW,327,0.0,0.0,87,0.00,,,0.00,WUHU216DAVISVP2,2013-01-06 10:06:00,
2013-01-06 05:11:00,20.2,16.6,30.08,NNW,327,0.0,0.0,86,0.00,,,0.00,WUHU216DAVISVP2,2013-01-06 10:11:00,
2013-01-06 05:16:00,20.2,16.9,30.09,NNW,327,0.0,0.0,87,0.00,,,0.00,WUHU216DAVISVP2,2013-01-06 10:16:00,
2013-01-06 05:21:00,20.3,17.0,30.08,NNW,327,0.0,0.0,87,0.00,,,0.00,WUHU216DAVISVP2,2013-01-06 10:21:00,
2013-01-06 05:26:00,20.3,17.0,30.08,NNW,327,0.0,0.0,87,0.00,,,0.00,WUHU216DAVISVP2,2013-01-06 10:26:00,
2013-01-06 05:31:00,20.3,16.7,30.08,NNW,327,0.0,0.0,86,0.00,,,0.00,WUHU216DAVISVP2,2013-01-06 10:31:00,
2013-01-06 05:36:00,20.4,17.1,30.07,NNW,327,0.0,0.0,87,0.00,,,0.00,WUHU216DAVISVP2,2013-01-06 10:36:00,
2013-01-06 05:41:00,20.4,17.1,30.07,NNW,327,0.0,0.0,87,0.00,,,0.00,WUHU216DAVISVP2,2013-01-06 10:41:00,
2013-01-06 05:46:00,20.4,16.8,30.07,NNW,327,0.0,0.0,86,0.00,,,0.00,WUHU216DAVISVP2,2013-01-06 10:46:00,
2013-01-06 05:51:00,20.4,16.9,30.07,NNW,327,0.0,0.0,86,0.00,,,0.00,WUHU216DAVISVP2,2013-01-06 10:51:00,
2013-01-06 05:56:00,20.5,17.0,30.07,NNW,327,0.0,0.0,86,0.00,,,0.00,WUHU216DAVISVP2,2013-01-06 10:56:00,
2013-01-06 06:01:00,20.5,17.0,30.06,NNW,327,0.0,0.0,86,0.00,,,0.00,WUHU216DAVISVP2,2013-01-06 11:01:00,
2013-01-06 06:06:00,20.6,17.1,30.07,NNW,327,0.0,0.0,86,0.00,,,0.00,WUHU216DAVISVP2,2013-01-06 11:06:00,
2013-01-06 06:11:00,20.5,17.0,30.06,NNW,327,0.0,0.0,86,0.00,,,0.00,WUHU216DAVISVP2,2013-01-06 11:11:00,
2013-01-06 06:16:00,20.6,17.1,30.07,NNW,327,0.0,0.0,86,0.00,,,0.00,WUHU216DAVISVP2,2013-01-06 11:16:00,
2013-01-06 06:21:00,20.6,17.3,30.07,NNW,327,0.0,0.0,87,0.00,,,0.00,WUHU216DAVISVP2,2013-01-06 11:21:00,
2013-01-06 06:26:00,20.6,17.3,30.06,NNW,327,0.0,0.0,87,0.00,,,0.00,WUHU216DAVISVP2,2013-01-06 11:26:00,
2013-01-06 06:31:00,20.6,17.3,30.05,NNW,327,0.0,0.0,87,0.00,,,0.00,WUHU216DAVISVP2,2013-01-06 11:31:00,
2013-01-06 06:36:00,20.7,17.4,30.05,NNE,13,0.0,3.0,87,0.00,,,0.00,WUHU216DAVISVP2,2013-01-06 11:36:00,
2013-01-06 06:41:00,20.7,17.4,30.05,NNE,13,0.0,3.0,87,0.00,,,0.00,WUHU216DAVISVP2,2013-01-06 11:41:00,
2013-01-06 06:46:00,20.7,17.7,30.05,NNE,13,0.0,3.0,88,0.00,,,0.00,WUHU216DAVISVP2,2013-01-06 11:46:00,
2013-01-06 06:51:00,20.7,17.7,30.05,NNE,13,0.0,3.0,88,0.00,,,0.00,WUHU216DAVISVP2,2013-01-06 11:51:00,
2013-01-06 06:56:00,20.7,17.7,30.04,NNE,13,0.0,0.0,88,0.00,,,0.00,WUHU216DAVISVP2,2013-01-06 11:56:00,
2013-01-06 07:01:00,20.7,17.7,30.04,NNE,13,0.0,0.0,88,0.00,,,0.00,WUHU216DAVISVP2,2013-01-06 12:01:00,
2013-01-06 07:06:00,20.7,17.7,30.04,NNE,13,0.0,0.0,88,0.00,,,0.00,WUHU216DAVISVP2,2013-01-06 12:06:00,
2013-01-06 07:11:00,20.6,17.6,30.03,NNE,13,0.0,0.0,88,0.00,,,0.00,WUHU216DAVISVP2,2013-01-06 12:11:00,
2013-01-06 07:16:00,20.6,17.8,30.03,NNE,13,0.0,0.0,89,0.00,,,0.00,WUHU216DAVISVP2,2013-01-06 12:16:00,
2013-01-06 07:21:00,20.6,17.8,30.03,NNE,13,0.0,1.0,89,0.00,,,0.00,WUHU216DAVISVP2,2013-01-06 12:21:00,
2013-01-06 07:26:00,20.6,17.6,30.03,NNE,13,1.0,1.0,88,0.00,,,0.00,WUHU216DAVISVP2,2013-01-06 12:26:00,
2013-01-06 07:31:00,20.6,17.8,30.03,NNE,13,0.0,1.0,89,0.00,,,0.00,WUHU216DAVISVP2,2013-01-06 12:31:00,
2013-01-06 07:36:00,20.6,17.8,30.03,NNE,13,0.0,1.0,89,0.00,,,0.00,WUHU216DAVISVP2,2013-01-06 12:36:00,
2013-01-06 07:41:00,20.7,17.9,30.04,NNE,13,0.0,1.0,89,0.00,,,0.00,WUHU216DAVISVP2,2013-01-06 12:41:00,
2013-01-06 07:46:00,20.7,17.9,30.03,NNE,13,0.0,0.0,89,0.00,,,0.00,WUHU216DAVISVP2,2013-01-06 12:46:00,
2013-01-06 07:51:00,20.7,17.9,30.03,NNE,13,0.0,0.0,89,0.00,,,0.00,WUHU216DAVISVP2,2013-01-06 12:51:00,
2013-01-06 07:56:00,20.7,17.9,30.03,NNE,13,0.0,0.0,89,0.00,,,0.00,WUHU216DAVISVP2,2013-01-06 12:56:00,
2013-01-06 08:01:00,20.7,17.9,30.03,NNE,13,0.0,0.0,89,0.00,,,0.00,WUHU216DAVISVP2,2013-01-06 13:01:00,
2013-01-06 08:06:00,20.8,18.0,30.03,NNE,13,0.0,0.0,89,0.00,,,0.00,WUHU216DAVISVP2,2013-01-06 13:06:00,
2013-01-06 08:11:00,20.8,18.0,30.03,NNE,13,0.0,0.0,89,0.00,,,0.00,WUHU216DAVISVP2,2013-01-06 13:11:00,
2013-01-06 08:16:00,21.0,18.2,30.03,NNE,13,0.0,0.0,89,0.00,,,0.00,WUHU216DAVISVP2,2013-01-06 13:16:00,
2013-01-06 08:21:00,21.2,18.4,30.03,NNE,13,0.0,0.0,89,0.00,,,0.00,WUHU216DAVISVP2,2013-01-06 13:21:00,
2013-01-06 08:26:00,21.3,18.5,30.03,NNE,13,0.0,0.0,89,0.00,,,0.00,WUHU216DAVISVP2,2013-01-06 13:26:00,
2013-01-06 08:31:00,21.5,18.5,30.03,NNE,13,0.0,0.0,88,0.00,,,0.00,WUHU216DAVISVP2,2013-01-06 13:31:00,
2013-01-06 08:36:00,21.7,18.7,30.03,NNE,13,0.0,0.0,88,0.00,,,0.00,WUHU216DAVISVP2,2013-01-06 13:36:00,
2013-01-06 08:41:00,22.0,18.9,30.02,NNE,13,1.0,1.0,88,0.00,,,0.00,WUHU216DAVISVP2,2013-01-06 13:41:00,
2013-01-06 08:46:00,22.4,19.1,30.02,NNE,13,0.0,1.0,87,0.00,,,0.00,WUHU216DAVISVP2,2013-01-06 13:46:00,
2013-01-06 08:51:00,22.6,19.0,30.02,NNE,13,0.0,1.0,86,0.00,,,0.00,WUHU216DAVISVP2,2013-01-06 13:51:00,
2013-01-06 08:56:00,22.8,19.2,30.02,NNE,13,0.0,1.0,86,0.00,,,0.00,WUHU216DAVISVP2,2013-01-06 13:56:00,
2013-01-06 09:01:00,23.1,19.5,30.02,NNE,13,0.0,1.0,86,0.00,,,0.00,WUHU216DAVISVP2,2013-01-06 14:01:00,
2013-01-06 09:06:00,23.3,19.7,30.02,NNE,13,0.0,0.0,86,0.00,,,0.00,WUHU216DAVISVP2,2013-01-06 14:06:00,
2013-01-06 09:11:00,23.4,19.5,30.02,NNE,13,0.0,1.0,85,0.00,,,0.00,WUHU216DAVISVP2,2013-01-06 14:11:00,
2013-01-06 09:16:00,23.6,19.7,30.02,NNE,13,0.0,1.0,85,0.00,,,0.00,WUHU216DAVISVP2,2013-01-06 14:16:00,
2013-01-06 09:21:00,23.9,20.0,30.02,NNE,13,1.0,1.0,85,0.00,,,0.00,WUHU216DAVISVP2,2013-01-06 14:21:00,
2013-01-06 09:26:00,24.2,20.0,30.02,NNE,13,1.0,2.0,84,0.00,,,0.00,WUHU216DAVISVP2,2013-01-06 14:26:00,
2013-01-06 09:31:00,24.5,20.3,30.01,NNE,13,0.0,2.0,84,0.00,,,0.00,WUHU216DAVISVP2,2013-01-06 14:31:00,
2013-01-06 09:36:00,24.8,20.6,30.01,NNE,13,0.0,2.0,84,0.00,,,0.00,WUHU216DAVISVP2,2013-01-06 14:36:00,
2013-01-06 09:41:00,25.1,20.7,30.01,NNE,13,0.0,2.0,83,0.00,,,0.00,WUHU216DAVISVP2,2013-01-06 14:41:00,
2013-01-06 09:46:00,25.6,21.1,30.01,NNE,13,0.0,1.0,83,0.00,,,0.00,WUHU216DAVISVP2,2013-01-06 14:46:00,
2013-01-06 09:51:00,26.0,21.2,30.01,NNE,13,1.0,1.0,82,0.00,,,0.00,WUHU216DAVISVP2,2013-01-06 14:51:00,
2013-01-06 09:56:00,26.5,21.7,30.00,NNE,13,1.0,1.0,82,0.00,,,0.00,WUHU216DAVISVP2,2013-01-06 14:56:00,
2013-01-06 10:01:00,26.8,22.0,30.00,NNE,13,0.0,1.0,82,0.00,,,0.00,WUHU216DAVISVP2,2013-01-06 15:01:00,
2013-01-06 10:06:00,27.2,22.1,30.00,NNE,13,0.0,1.0,81,0.00,,,0.00,WUHU216DAVISVP2,2013-01-06 15:06:00,
2013-01-06 10:11:00,27.4,22.3,30.00,NNE,13,0.0,1.0,81,0.00,,,0.00,WUHU216DAVISVP2,2013-01-06 15:11:00,
2013-01-06 10:16:00,27.6,22.5,29.99,NNE,13,0.0,1.0,81,0.00,,,0.00,WUHU216DAVISVP2,2013-01-06 15:16:00,
2013-01-06 10:21:00,28.0,22.9,29.99,NNE,13,0.0,1.0,81,0.00,,,0.00,WUHU216DAVISVP2,2013-01-06 15:21:00,
2013-01-06 10:26:00,28.5,23.1,29.99,NNE,13,1.0,1.0,80,0.00,,,0.00,WUHU216DAVISVP2,2013-01-06 15:26:00,
2013-01-06 10:31:00,29.1,23.7,29.99,NNE,13,1.0,2.0,80,0.00,,,0.00,WUHU216DAVISVP2,2013-01-06 15:31:00,
2013-01-06 10:36:00,29.8,24.1,29.98,NNE,13,1.0,2.0,79,0.00,,,0.00,WUHU216DAVISVP2,2013-01-06 15:36:00,
2013-01-06 10:41:00,30.4,24.4,29.98,NNE,13,0.0,2.0,78,0.00,,,0.00,WUHU216DAVISVP2,2013-01-06 15:41:00,
2013-01-06 10:46:00,30.9,24.6,29.98,NNE,13,0.0,1.0,77,0.00,,,0.00,WUHU216DAVISVP2,2013-01-06 15:46:00,
2013-01-06 10:51:00,31.3,25.0,29.98,NNE,13,1.0,2.0,77,0.00,,,0.00,WUHU216DAVISVP2,2013-01-06 15:51:00,
2013-01-06 10:56:00,31.7,25.0,29.97,NNE,13,1.0,2.0,76,0.00,,,0.00,WUHU216DAVISVP2,2013-01-06 15:56:00,
2013-01-06 11:01:00,32.0,25.3,29.97,NNE,13,0.0,2.0,76,0.00,,,0.00,WUHU216DAVISVP2,2013-01-06 16:01:00,
2013-01-06 11:06:00,32.4,25.7,29.96,NNE,13,0.0,2.0,76,0.00,,,0.00,WUHU216DAVISVP2,2013-01-06 16:06:00,
2013-01-06 11:11:00,32.9,25.9,29.96,NNE,13,1.0,2.0,75,0.00,,,0.00,WUHU216DAVISVP2,2013-01-06 16:11:00,
2013-01-06 11:16:00,33.5,26.5,29.96,WNW,287,1.8,5.0,75,0.00,,,0.00,WUHU216DAVISVP2,2013-01-06 16:16:00,
2013-01-06 11:21:00,34.2,26.8,29.96,SW,226,1.3,5.0,74,0.00,,,0.00,WUHU216DAVISVP2,2013-01-06 16:21:00,
2013-01-06 11:26:00,34.7,27.3,29.96,SSW,206,1.0,5.0,74,0.00,,,0.00,WUHU216DAVISVP2,2013-01-06 16:26:00,
2013-01-06 11:31:00,35.2,27.5,29.96,SW,228,1.0,5.0,73,0.00,,,0.00,WUHU216DAVISVP2,2013-01-06 16:31:00,
2013-01-06 11:36:00,35.6,27.5,29.95,West,279,1.0,3.0,72,0.00,,,0.00,WUHU216DAVISVP2,2013-01-06 16:36:00,
2013-01-06 11:41:00,35.8,27.4,29.95,West,278,1.0,3.0,71,0.00,,,0.00,WUHU216DAVISVP2,2013-01-06 16:41:00,
2013-01-06 11:46:00,36.1,27.7,29.94,West,271,1.0,3.0,71,0.00,,,0.00,WUHU216DAVISVP2,2013-01-06 16:46:00,
2013-01-06 11:51:00,36.2,27.8,29.94,West,271,1.0,3.0,71,0.00,,,0.00,WUHU216DAVISVP2,2013-01-06 16:51:00,
2013-01-06 11:56:00,36.3,27.5,29.93,SW,236,2.0,3.0,70,0.00,,,0.00,WUHU216DAVISVP2,2013-01-06 16:56:00,
2013-01-06 12:01:00,36.3,27.5,29.93,WSW,243,2.3,5.0,70,0.00,,,0.00,WUHU216DAVISVP2,2013-01-06 17:01:00,
2013-01-06 12:06:00,36.5,28.1,29.93,NW,319,0.0,5.0,71,0.00,,,0.00,WUHU216DAVISVP2,2013-01-06 17:06:00,
2013-01-06 12:11:00,36.6,27.8,29.93,WSW,249,1.5,5.0,70,0.00,,,0.00,WUHU216DAVISVP2,2013-01-06 17:11:00,
2013-01-06 12:16:00,36.8,27.7,29.93,SSW,203,2.1,5.0,69,0.00,,,0.00,WUHU216DAVISVP2,2013-01-06 17:16:00,
2013-01-06 12:21:00,36.9,27.8,29.92,SW,225,1.6,5.0,69,0.00,,,0.00,WUHU216DAVISVP2,2013-01-06 17:21:00,
2013-01-06 12:26:00,37.1,27.9,29.92,WSW,246,1.0,5.0,69,0.00,,,0.00,WUHU216DAVISVP2,2013-01-06 17:26:00,
2013-01-06 12:31:00,37.3,28.1,29.92,WSW,255,2.2,6.0,69,0.00,,,0.00,WUHU216DAVISVP2,2013-01-06 17:31:00,
2013-01-06 12:36:00,37.5,28.0,29.92,SSW,196,2.7,6.0,68,0.00,,,0.00,WUHU216DAVISVP2,2013-01-06 17:36:00,
2013-01-06 12:41:00,37.5,28.0,29.92,SW,215,2.3,6.0,68,0.00,,,0.00,WUHU216DAVISVP2,2013-01-06 17:41:00,
2013-01-06 12:45:00,37.5,28.3,29.92,WSW,254,2.0,6.0,69,0.00,,,0.00,WUHU216DAVISVP2,2013-01-06 17:45:00,
2013-01-06 12:50:00,37.6,28.4,29.92,WNW,290,2.0,7.0,69,0.00,,,0.00,WUHU216DAVISVP2,2013-01-06 17:50:00,
2013-01-06 12:55:00,37.7,28.2,29.92,SW,235,3.1,7.0,68,0.00,,,0.00,WUHU216DAVISVP2,2013-01-06 17:55:00,
2013-01-06 13:01:00,37.7,28.5,29.91,WNW,288,2.3,7.0,69,0.00,,,0.00,WUHU216DAVISVP2,2013-01-06 18:01:00,
2013-01-06 13:05:00,37.8,28.6,29.92,WNW,287,1.7,7.0,69,0.00,,,0.00,WUHU216DAVISVP2,2013-01-06 18:05:00,
2013-01-06 13:10:00,37.9,28.7,29.91,WSW,238,3.0,7.0,69,0.00,,,0.00,WUHU216DAVISVP2,2013-01-06 18:10:00,
2013-01-06 13:16:00,38.0,28.5,29.91,West,281,1.7,7.0,68,0.00,,,0.00,WUHU216DAVISVP2,2013-01-06 18:16:00,
2013-01-06 13:21:00,38.1,28.5,29.91,WSW,246,2.0,10.0,68,0.00,,,0.00,WUHU216DAVISVP2,2013-01-06 18:21:00,
2013-01-06 13:26:00,38.1,28.5,29.91,WSW,254,3.0,10.0,68,0.00,,,0.00,WUHU216DAVISVP2,2013-01-06 18:26:00,
2013-01-06 13:31:00,38.1,28.5,29.91,WNW,287,4.3,10.0,68,0.00,,,0.00,WUHU216DAVISVP2,2013-01-06 18:31:00,
2013-01-06 13:35:00,38.2,28.6,29.91,South,187,1.4,10.0,68,0.00,,,0.00,WUHU216DAVISVP2,2013-01-06 18:35:00,
2013-01-06 13:41:00,38.3,28.7,29.91,West,261,4.0,9.0,68,0.00,,,0.00,WUHU216DAVISVP2,2013-01-06 18:41:00,
2013-01-06 13:46:00,38.3,28.7,29.91,WSW,244,1.4,9.0,68,0.00,,,0.00,WUHU216DAVISVP2,2013-01-06 18:46:00,
2013-01-06 13:50:00,38.4,28.8,29.91,SW,236,4.0,7.0,68,0.00,,,0.00,WUHU216DAVISVP2,2013-01-06 18:50:00,
2013-01-06 13:55:00,38.4,28.8,29.91,WSW,237,3.1,8.0,68,0.00,,,0.00,WUHU216DAVISVP2,2013-01-06 18:55:00,
2013-01-06 14:00:00,38.5,28.9,29.91,WNW,292,2.9,8.0,68,0.00,,,0.00,WUHU216DAVISVP2,2013-01-06 19:00:00,
2013-01-06 14:06:00,38.6,28.7,29.91,West,276,2.8,8.0,67,0.00,,,0.00,WUHU216DAVISVP2,2013-01-06 19:06:00,
2013-01-06 14:10:00,38.7,28.8,29.91,West,281,2.4,8.0,67,0.00,,,0.00,WUHU216DAVISVP2,2013-01-06 19:10:00,
2013-01-06 14:16:00,38.6,28.7,29.91,SW,235,2.0,7.0,67,0.00,,,0.00,WUHU216DAVISVP2,2013-01-06 19:16:00,
2013-01-06 14:20:00,38.5,28.9,29.91,SSW,198,6.0,7.0,68,0.00,,,0.00,WUHU216DAVISVP2,2013-01-06 19:20:00,
2013-01-06 14:25:00,38.7,28.8,29.91,SW,218,2.3,7.0,67,0.00,,,0.00,WUHU216DAVISVP2,2013-01-06 19:25:00,
2013-01-06 14:30:00,38.9,29.0,29.91,WNW,303,2.0,7.0,67,0.00,,,0.00,WUHU216DAVISVP2,2013-01-06 19:30:00,
2013-01-06 14:35:00,39.1,28.8,29.90,SSW,210,3.0,7.0,66,0.00,,,0.00,WUHU216DAVISVP2,2013-01-06 19:35:00,
2013-01-06 14:45:00,39.1,28.8,29.90,SSW,210,1.7,5.0,66,0.00,,,0.00,WUHU216DAVISVP2,2013-01-06 19:45:00,
2013-01-06 14:51:00,39.1,28.8,29.90,West,264,1.9,5.0,66,0.00,,,0.00,WUHU216DAVISVP2,2013-01-06 19:51:00,
2013-01-06 14:56:00,39.3,29.0,29.90,SW,231,2.0,6.0,66,0.00,,,0.00,WUHU216DAVISVP2,2013-01-06 19:56:00,
2013-01-06 15:01:00,39.2,28.9,29.90,NW,304,1.5,6.0,66,0.00,,,0.00,WUHU216DAVISVP2,2013-01-06 20:01:00,
2013-01-06 15:06:00,39.0,28.7,29.90,SSW,211,1.0,6.0,66,0.00,,,0.00,WUHU216DAVISVP2,2013-01-06 20:06:00,
2013-01-06 15:11:00,38.7,28.8,29.90,SSW,210,2.4,6.0,67,0.00,,,0.00,WUHU216DAVISVP2,2013-01-06 20:11:00,
2013-01-06 15:13:00,38.5,28.6,29.90,SW,218,2.0,6.0,67,0.00,,,0.00,WUHU216DAVISVP2,2013-01-06 20:13:00,
2013-01-06 15:18:00,38.2,28.6,29.90,West,265,1.4,5.0,68,0.00,,,0.00,WUHU216DAVISVP2,2013-01-06 20:18:00,
2013-01-06 15:23:00,38.0,28.5,29.90,WSW,252,1.0,5.0,68,0.00,,,0.00,WUHU216DAVISVP2,2013-01-06 20:23:00,
2013-01-06 15:28:00,37.8,28.6,29.90,SW,218,1.0,5.0,69,0.00,,,0.00,WUHU216DAVISVP2,2013-01-06 20:28:00,
2013-01-06 15:33:00,37.8,28.6,29.90,SSW,207,1.0,5.0,69,0.00,,,0.00,WUHU216DAVISVP2,2013-01-06 20:33:00,
2013-01-06 15:38:00,37.6,28.4,29.90,WSW,255,1.2,5.0,69,0.00,,,0.00,WUHU216DAVISVP2,2013-01-06 20:38:00,
2013-01-06 15:43:00,37.6,28.4,29.90,SSW,210,1.9,5.0,69,0.00,,,0.00,WUHU216DAVISVP2,2013-01-06 20:43:00,
2013-01-06 15:48:00,37.5,28.3,29.90,SSW,210,0.0,5.0,69,0.00,,,0.00,WUHU216DAVISVP2,2013-01-06 20:48:00,
2013-01-06 15:53:00,37.5,28.3,29.90,WSW,256,1.3,5.0,69,0.00,,,0.00,WUHU216DAVISVP2,2013-01-06 20:53:00,
2013-01-06 15:58:00,37.4,28.2,29.90,SSW,203,2.0,5.0,69,0.00,,,0.00,WUHU216DAVISVP2,2013-01-06 20:58:00,
2013-01-06 16:01:00,37.3,28.5,29.90,SSW,201,1.0,4.0,70,0.00,,,0.00,WUHU216DAVISVP2,2013-01-06 21:01:00,
2013-01-06 16:06:00,37.0,28.2,29.90,SSW,201,1.0,4.0,70,0.00,,,0.00,WUHU216DAVISVP2,2013-01-06 21:06:00,
2013-01-06 16:11:00,36.6,28.2,29.90,SSW,201,0.0,4.0,71,0.00,,,0.00,WUHU216DAVISVP2,2013-01-06 21:11:00,
2013-01-06 16:16:00,36.3,27.9,29.91,SSW,201,0.0,3.0,71,0.00,,,0.00,WUHU216DAVISVP2,2013-01-06 21:16:00,
2013-01-06 16:21:00,35.9,27.8,29.91,SSW,201,0.0,1.0,72,0.00,,,0.00,WUHU216DAVISVP2,2013-01-06 21:21:00,
2013-01-06 16:26:00,35.3,27.9,29.91,SSW,201,0.0,1.0,74,0.00,,,0.00,WUHU216DAVISVP2,2013-01-06 21:26:00,
2013-01-06 16:31:00,34.7,27.6,29.91,SSW,201,0.0,1.0,75,0.00,,,0.00,WUHU216DAVISVP2,2013-01-06 21:31:00,
2013-01-06 16:36:00,34.3,27.6,29.91,SSW,201,0.0,1.0,76,0.00,,,0.00,WUHU216DAVISVP2,2013-01-06 21:36:00,
2013-01-06 16:41:00,33.8,27.4,29.91,SSW,201,0.0,0.0,77,0.00,,,0.00,WUHU216DAVISVP2,2013-01-06 21:41:00,
2013-01-06 16:46:00,33.2,27.1,29.91,SSW,201,0.0,0.0,78,0.00,,,0.00,WUHU216DAVISVP2,2013-01-06 21:46:00,
2013-01-06 16:51:00,32.6,26.8,29.91,SSW,201,0.0,0.0,79,0.00,,,0.00,WUHU216DAVISVP2,2013-01-06 21:51:00,
2013-01-06 16:56:00,32.3,26.8,29.91,SSW,201,0.0,0.0,80,0.00,,,0.00,WUHU216DAVISVP2,2013-01-06 21:56:00,
2013-01-06 17:01:00,31.9,26.7,29.91,SSW,201,0.0,0.0,81,0.00,,,0.00,WUHU216DAVISVP2,2013-01-06 22:01:00,
2013-01-06 17:06:00,31.6,26.7,29.91,SSW,201,0.0,0.0,82,0.00,,,0.00,WUHU216DAVISVP2,2013-01-06 22:06:00,
2013-01-06 17:11:00,31.4,26.5,29.91,SSW,201,0.0,0.0,82,0.00,,,0.00,WUHU216DAVISVP2,2013-01-06 22:11:00,
2013-01-06 17:16:00,31.3,26.7,29.91,SSW,201,0.0,0.0,83,0.00,,,0.00,WUHU216DAVISVP2,2013-01-06 22:16:00,
2013-01-06 17:21:00,31.1,26.8,29.91,SSW,201,0.0,0.0,84,0.00,,,0.00,WUHU216DAVISVP2,2013-01-06 22:21:00,
2013-01-06 17:26:00,31.1,26.8,29.91,SSW,201,0.0,0.0,84,0.00,,,0.00,WUHU216DAVISVP2,2013-01-06 22:26:00,
2013-01-06 17:31:00,31.0,26.7,29.91,SSW,201,0.0,0.0,84,0.00,,,0.00,WUHU216DAVISVP2,2013-01-06 22:31:00,
2013-01-06 17:36:00,31.3,27.0,29.91,SSW,201,1.0,1.0,84,0.00,,,0.00,WUHU216DAVISVP2,2013-01-06 22:36:00,
2013-01-06 17:41:00,31.5,27.2,29.91,SSW,201,0.0,1.0,84,0.00,,,0.00,WUHU216DAVISVP2,2013-01-06 22:41:00,
2013-01-06 17:46:00,31.6,27.3,29.91,SSW,201,0.0,1.0,84,0.00,,,0.00,WUHU216DAVISVP2,2013-01-06 22:46:00,
2013-01-06 17:51:00,31.6,27.6,29.91,SSW,201,0.0,1.0,85,0.00,,,0.00,WUHU216DAVISVP2,2013-01-06 22:51:00,
2013-01-06 17:56:00,31.6,27.9,29.91,SSW,201,0.0,0.0,86,0.00,,,0.00,WUHU216DAVISVP2,2013-01-06 22:56:00,
2013-01-06 18:01:00,31.5,27.8,29.91,SSW,201,0.0,0.0,86,0.00,,,0.00,WUHU216DAVISVP2,2013-01-06 23:01:00,
2013-01-06 18:06:00,31.4,27.4,29.92,SSW,201,0.0,0.0,85,0.00,,,0.00,WUHU216DAVISVP2,2013-01-06 23:06:00,
2013-01-06 18:11:00,31.4,27.4,29.92,SSW,201,0.0,0.0,85,0.00,,,0.00,WUHU216DAVISVP2,2013-01-06 23:11:00,
2013-01-06 18:16:00,31.4,27.4,29.92,SSW,201,0.0,0.0,85,0.00,,,0.00,WUHU216DAVISVP2,2013-01-06 23:16:00,
2013-01-06 18:21:00,31.3,27.3,29.92,SSW,201,0.0,0.0,85,0.00,,,0.00,WUHU216DAVISVP2,2013-01-06 23:21:00,
2013-01-06 18:26:00,31.3,27.6,29.92,SSW,201,0.0,0.0,86,0.00,,,0.00,WUHU216DAVISVP2,2013-01-06 23:26:00,
2013-01-06 18:31:00,31.4,27.7,29.92,SSW,201,0.0,0.0,86,0.00,,,0.00,WUHU216DAVISVP2,2013-01-06 23:31:00,
2013-01-06 18:36:00,31.3,27.3,29.93,SSW,201,0.0,0.0,85,0.00,,,0.00,WUHU216DAVISVP2,2013-01-06 23:36:00,
2013-01-06 18:41:00,31.3,27.6,29.92,SSW,201,0.0,0.0,86,0.00,,,0.00,WUHU216DAVISVP2,2013-01-06 23:41:00,
2013-01-06 18:46:00,31.3,27.6,29.92,SSW,201,0.0,0.0,86,0.00,,,0.00,WUHU216DAVISVP2,2013-01-06 23:46:00,
2013-01-06 18:51:00,31.3,27.6,29.93,SSW,201,0.0,0.0,86,0.00,,,0.00,WUHU216DAVISVP2,2013-01-06 23:51:00,
2013-01-06 18:56:00,31.2,27.5,29.93,SSW,201,1.0,1.0,86,0.00,,,0.00,WUHU216DAVISVP2,2013-01-06 23:56:00,
2013-01-06 19:01:00,31.2,27.7,29.93,SSW,201,0.0,1.0,87,0.00,,,0.00,WUHU216DAVISVP2,2013-01-07 00:01:00,
2013-01-06 19:06:00,31.3,27.8,29.93,SSW,201,0.0,1.0,87,0.00,,,0.00,WUHU216DAVISVP2,2013-01-07 00:06:00,
2013-01-06 19:11:00,31.3,27.8,29.93,SSW,201,0.0,1.0,87,0.00,,,0.00,WUHU216DAVISVP2,2013-01-07 00:11:00,
2013-01-06 19:16:00,31.2,27.7,29.93,SSW,201,0.0,1.0,87,0.00,,,0.00,WUHU216DAVISVP2,2013-01-07 00:16:00,
2013-01-06 19:21:00,31.2,27.7,29.93,SSW,201,0.0,1.0,87,0.00,,,0.00,WUHU216DAVISVP2,2013-01-07 00:21:00,
2013-01-06 19:26:00,31.1,27.6,29.93,SSW,201,0.0,0.0,87,0.00,,,0.00,WUHU216DAVISVP2,2013-01-07 00:26:00,
2013-01-06 19:31:00,31.1,27.6,29.93,SSW,201,0.0,0.0,87,0.00,,,0.00,WUHU216DAVISVP2,2013-01-07 00:31:00,
2013-01-06 19:36:00,31.0,27.5,29.93,SSW,201,0.0,0.0,87,0.00,,,0.00,WUHU216DAVISVP2,2013-01-07 00:36:00,
2013-01-06 19:41:00,31.0,27.8,29.93,SSW,201,0.0,0.0,88,0.00,,,0.00,WUHU216DAVISVP2,2013-01-07 00:41:00,
2013-01-06 19:46:00,31.0,27.8,29.93,SSW,201,0.0,0.0,88,0.00,,,0.00,WUHU216DAVISVP2,2013-01-07 00:46:00,
2013-01-06 19:51:00,31.0,28.1,29.93,SSW,201,0.0,0.0,89,0.00,,,0.00,WUHU216DAVISVP2,2013-01-07 00:51:00,
2013-01-06 19:56:00,30.9,27.7,29.93,SSW,201,0.0,0.0,88,0.00,,,0.00,WUHU216DAVISVP2,2013-01-07 00:56:00,
2013-01-06 20:01:00,30.9,27.7,29.93,SSW,201,0.0,0.0,88,0.00,,,0.00,WUHU216DAVISVP2,2013-01-07 01:01:00,
2013-01-06 20:06:00,30.9,27.7,29.93,SSW,201,0.0,0.0,88,0.00,,,0.00,WUHU216DAVISVP2,2013-01-07 01:06:00,
2013-01-06 20:11:00,30.9,28.0,29.93,SSW,201,0.0,0.0,89,0.00,,,0.00,WUHU216DAVISVP2,2013-01-07 01:11:00,
2013-01-06 20:16:00,30.8,27.9,29.93,SSW,201,0.0,0.0,89,0.00,,,0.00,WUHU216DAVISVP2,2013-01-07 01:16:00,
2013-01-06 20:21:00,30.7,27.8,29.93,SSW,201,0.0,0.0,89,0.00,,,0.00,WUHU216DAVISVP2,2013-01-07 01:21:00,
2013-01-06 20:26:00,30.6,27.7,29.93,SSW,201,0.0,0.0,89,0.00,,,0.00,WUHU216DAVISVP2,2013-01-07 01:26:00,
2013-01-06 20:31:00,30.6,27.7,29.93,SSW,201,0.0,0.0,89,0.00,,,0.00,WUHU216DAVISVP2,2013-01-07 01:31:00,
2013-01-06 20:36:00,30.5,27.6,29.93,SSW,201,0.0,0.0,89,0.00,,,0.00,WUHU216DAVISVP2,2013-01-07 01:36:00,
2013-01-06 20:41:00,30.4,27.5,29.93,SSW,201,0.0,0.0,89,0.00,,,0.00,WUHU216DAVISVP2,2013-01-07 01:41:00,
2013-01-06 21:00:00,30.0,27.4,29.92,SSW,201,0.0,0.0,90,0.00,,,0.00,WUHU216DAVISVP2,2013-01-07 02:00:00,
2013-01-06 21:05:00,30.0,27.4,29.92,SSW,201,0.0,0.0,90,0.00,,,0.00,WUHU216DAVISVP2,2013-01-07 02:05:00,
2013-01-06 21:10:00,29.9,27.3,29.92,SSW,201,0.0,0.0,90,0.00,,,0.00,WUHU216DAVISVP2,2013-01-07 02:10:00,
2013-01-06 21:15:00,29.9,27.3,29.92,SSW,201,0.0,0.0,90,0.00,,,0.00,WUHU216DAVISVP2,2013-01-07 02:15:00,
2013-01-06 21:20:00,29.9,27.5,29.92,SSW,201,0.0,0.0,91,0.00,,,0.00,WUHU216DAVISVP2,2013-01-07 02:20:00,
2013-01-06 21:25:00,29.8,27.4,29.92,SSW,201,0.0,0.0,91,0.00,,,0.00,WUHU216DAVISVP2,2013-01-07 02:25:00,
2013-01-06 21:30:00,29.7,27.3,29.92,SSW,201,0.0,0.0,91,0.00,,,0.00,WUHU216DAVISVP2,2013-01-07 02:30:00,
2013-01-06 21:35:00,29.6,27.2,29.92,SSW,201,0.0,0.0,91,0.00,,,0.00,WUHU216DAVISVP2,2013-01-07 02:35:00,
2013-01-06 21:40:00,29.4,27.0,29.92,SSW,201,0.0,0.0,91,0.00,,,0.00,WUHU216DAVISVP2,2013-01-07 02:40:00,
2013-01-06 21:45:00,29.3,27.0,29.92,SSW,201,0.0,0.0,91,0.00,,,0.00,WUHU216DAVISVP2,2013-01-07 02:45:00,
2013-01-06 21:50:00,29.2,26.9,29.92,SSW,201,0.0,0.0,91,0.00,,,0.00,WUHU216DAVISVP2,2013-01-07 02:50:00,
2013-01-06 21:55:00,29.0,26.7,29.92,SSW,201,0.0,0.0,91,0.00,,,0.00,WUHU216DAVISVP2,2013-01-07 02:55:00,
2013-01-06 22:00:00,28.8,26.5,29.92,SSW,201,0.0,0.0,91,0.00,,,0.00,WUHU216DAVISVP2,2013-01-07 03:00:00,
2013-01-06 22:05:00,28.7,26.4,29.92,SSW,201,0.0,0.0,91,0.00,,,0.00,WUHU216DAVISVP2,2013-01-07 03:05:00,
2013-01-06 22:10:00,28.6,26.3,29.92,SSW,201,0.0,0.0,91,0.00,,,0.00,WUHU216DAVISVP2,2013-01-07 03:10:00,
2013-01-06 22:15:00,28.6,26.3,29.92,SSW,201,0.0,1.0,91,0.00,,,0.00,WUHU216DAVISVP2,2013-01-07 03:15:00,
2013-01-06 22:20:00,28.6,26.5,29.92,SSW,201,1.0,1.0,92,0.00,,,0.00,WUHU216DAVISVP2,2013-01-07 03:20:00,
2013-01-06 22:25:00,28.6,26.3,29.91,SSW,201,0.0,1.0,91,0.00,,,0.00,WUHU216DAVISVP2,2013-01-07 03:25:00,
2013-01-06 22:30:00,28.4,26.1,29.92,SSW,201,0.0,1.0,91,0.00,,,0.00,WUHU216DAVISVP2,2013-01-07 03:30:00,
2013-01-06 22:35:00,28.1,26.0,29.92,SSW,201,0.0,1.0,92,0.00,,,0.00,WUHU216DAVISVP2,2013-01-07 03:35:00,
2013-01-06 22:40:00,27.9,25.8,29.92,SSW,201,0.0,0.0,92,0.00,,,0.00,WUHU216DAVISVP2,2013-01-07 03:40:00,
2013-01-06 22:45:00,27.8,25.7,29.92,SSW,201,0.0,0.0,92,0.00,,,0.00,WUHU216DAVISVP2,2013-01-07 03:45:00,
2013-01-06 22:50:00,27.7,25.6,29.92,SSW,201,0.0,0.0,92,0.00,,,0.00,WUHU216DAVISVP2,2013-01-07 03:50:00,
2013-01-06 22:55:00,27.6,25.5,29.92,SSW,201,0.0,1.0,92,0.00,,,0.00,WUHU216DAVISVP2,2013-01-07 03:55:00,
2013-01-06 23:00:00,27.5,25.7,29.92,SSW,201,0.0,1.0,93,0.00,,,0.00,WUHU216DAVISVP2,2013-01-07 04:00:00,
2013-01-06 23:05:00,27.5,25.7,29.92,SSW,201,0.0,1.0,93,0.00,,,0.00,WUHU216DAVISVP2,2013-01-07 04:05:00,
2013-01-06 23:10:00,27.4,25.6,29.92,SSW,201,0.0,1.0,93,0.00,,,0.00,WUHU216DAVISVP2,2013-01-07 04:10:00,
2013-01-06 23:15:00,27.2,25.4,29.92,SSW,201,0.0,0.0,93,0.00,,,0.00,WUHU216DAVISVP2,2013-01-07 04:15:00,
2013-01-06 23:20:00,27.2,25.4,29.92,SSW,201,0.0,0.0,93,0.00,,,0.00,WUHU216DAVISVP2,2013-01-07 04:20:00,
2013-01-06 23:25:00,27.1,25.3,29.92,SSW,201,0.0,0.0,93,0.00,,,0.00,WUHU216DAVISVP2,2013-01-07 04:25:00,
2013-01-06 23:30:00,26.9,24.8,29.92,SSW,201,0.0,0.0,92,0.00,,,0.00,WUHU216DAVISVP2,2013-01-07 04:30:00,
2013-01-06 23:35:00,26.7,24.9,29.92,SSW,201,0.0,0.0,93,0.00,,,0.00,WUHU216DAVISVP2,2013-01-07 04:35:00,
2013-01-06 23:40:00,26.9,25.1,29.92,SSW,201,0.0,0.0,93,0.00,,,0.00,WUHU216DAVISVP2,2013-01-07 04:40:00,
2013-01-06 23:45:00,27.0,25.2,29.92,SSW,201,0.0,0.0,93,0.00,,,0.00,WUHU216DAVISVP2,2013-01-07 04:45:00,
2013-01-06 23:50:00,26.9,25.1,29.92,SSW,201,0.0,0.0,93,0.00,,,0.00,WUHU216DAVISVP2,2013-01-07 04:50:00,
2013-01-06 23:55:00,26.8,25.0,29.92,SSW,201,0.0,0.0,93,0.00,,,0.00,WUHU216DAVISVP2,2013-01-07 04:55:00,